EW8714 Weather Reports


Display with metric or nautical units.
time (UTC)temp
F
wind
direction
speed
MPH
gust
MPH
rain 1hr
in
rain 24hr
in
rain mn
in
humidity
%
barometer
mb
20260902095014 61 243 0.0 0.0 0.00 0.00 0.00 58 1018.4
20260902094517 61 243 0.0 5.0 0.00 0.00 0.00 58 1018.4
20260902094016 61 243 1.0 5.0 0.00 0.00 0.00 60 1018.4
20260902093516 60 286 0.0 3.0 0.00 0.00 0.00 62 1018.5
20260902093015 60 286 1.0 3.0 0.00 0.00 0.00 62 1018.4
20260902092513 60 286 2.0 4.0 0.00 0.00 0.00 61 1018.4
20260902092014 60 286 2.0 4.0 0.00 0.00 0.00 60 1018.3
20260902091519 60 286 3.0 4.0 0.00 0.00 0.00 62 1018.4
20260902091019 60 287 2.0 4.0 0.00 0.00 0.00 62 1018.4
20260902090513 61 287 1.0 3.0 0.00 0.00 0.00 60 1018.3
20260902090019 61 287 2.0 3.0 0.00 0.00 0.00 59 1018.3
20260902085515 62 287 0.0 2.0 0.00 0.00 0.00 57 1018.2
20260902085015 62 287 0.0 3.0 0.00 0.00 0.00 58 1018.1
20260902084516 62 287 1.0 3.0 0.00 0.00 0.00 58 1018.2
20260902084017 62 287 1.0 3.0 0.00 0.00 0.00 57 1018.1
20260902083520 62 287 1.0 3.0 0.00 0.00 0.00 58 1018.2
20260902083015 63 287 2.0 5.0 0.00 0.00 0.00 58 1018.2
20260902082515 62 287 1.0 5.0 0.00 0.00 0.00 60 1018.1
20260902082015 61 287 2.0 4.0 0.00 0.00 0.00 61 1018.4
20260902081520 62 287 2.0 4.0 0.00 0.00 0.00 60 1018.2
20260902081018 64 287 2.0 3.0 0.00 0.00 0.00 55 1018.3
20260902080519 64 287 0.0 4.0 0.00 0.00 0.00 54 1018.3
20260902080019 64 287 0.0 4.0 0.00 0.00 0.00 55 1018.4
20260902075519 64 287 0.0 2.0 0.00 0.00 0.00 55 1018.4
20260902075017 64 287 0.0 3.0 0.00 0.00 0.00 55 1018.4
20260902074522 64 287 1.0 3.0 0.00 0.00 0.00 55 1018.3
20260902074022 65 287 0.0 4.0 0.00 0.00 0.00 55 1018.3
20260902073527 65 287 1.0 5.0 0.00 0.00 0.00 55 1018.2
20260902073020 65 286 2.0 5.0 0.00 0.00 0.00 55 1018.2
20260902072519 65 285 2.0 5.0 0.00 0.00 0.00 55 1018.1
20260902072022 65 285 2.0 5.0 0.00 0.00 0.00 55 1018.1
20260902071518 66 285 2.0 5.0 0.00 0.00 0.00 55 1018.2
20260902071018 66 287 3.0 5.0 0.00 0.00 0.00 55 1018.1
20260902070517 66 282 3.0 5.0 0.00 0.00 0.00 54 1018.1
20260902070032 66 282 2.0 4.0 0.00 0.00 0.00 54 1018.1
20260902065522 66 281 2.0 5.0 0.00 0.00 0.00 54 1018.2
20260902065022 66 281 2.0 6.0 0.00 0.00 0.00 54 1018.0
20260902064535 66 279 2.0 6.0 0.00 0.00 0.00 54 1018.0
20260902064020 66 281 3.0 6.0 0.00 0.00 0.00 54 1018.0
20260902063522 67 289 1.0 6.0 0.00 0.00 0.00 53 1018.0
20260902063024 67 288 2.0 6.0 0.00 0.00 0.00 53 1018.0
20260902062523 67 286 3.0 6.0 0.00 0.00 0.00 53 1017.9
20260902062022 67 288 4.0 6.0 0.00 0.00 0.00 53 1017.9
20260902061518 67 302 3.0 5.0 0.00 0.00 0.00 53 1017.9
20260902061020 67 305 2.0 4.0 0.00 0.00 0.00 53 1018.0
20260902060519 68 304 2.0 5.0 0.00 0.00 0.00 52 1017.9
20260902060023 68 304 2.0 5.0 0.00 0.00 0.00 52 1017.9
20260902055520 68 304 2.0 4.0 0.00 0.00 0.00 52 1018.0
20260902055016 68 304 2.0 4.0 0.00 0.00 0.00 52 1018.0
20260902054520 69 307 2.0 5.0 0.00 0.00 0.00 51 1017.9
20260902054020 69 307 1.0 5.0 0.00 0.00 0.00 50 1018.0
20260902053522 69 307 3.0 5.0 0.00 0.00 0.00 50 1018.1
20260902053017 69 309 1.0 5.0 0.00 0.00 0.00 50 1018.0
20260902052521 69 309 3.0 8.0 0.00 0.00 0.00 51 1018.0
20260902052019 69 311 4.0 8.0 0.00 0.00 0.00 51 1018.1
20260902051518 70 62 3.0 5.0 0.00 0.00 0.00 51 1018.0
20260902051015 70 79 1.0 4.0 0.00 0.00 0.00 52 1018.0
20260902050517 71 75 1.0 3.0 0.00 0.00 0.00 52 1017.9
20260902050017 71 75 1.0 5.0 0.00 0.00 0.00 51 1017.9
20260902045520 71 75 2.0 5.0 0.00 0.00 0.00 51 1017.9
20260902045017 71 68 2.0 4.0 0.00 0.00 0.00 51 1018.0
20260902044517 71 62 1.0 5.0 0.00 0.00 0.00 51 1018.0
20260902044020 71 58 2.0 5.0 0.00 0.00 0.00 51 1018.1
20260902043518 71 54 0.0 3.0 0.00 0.00 0.00 50 1018.2
20260902043020 72 54 0.0 2.0 0.00 0.00 0.00 50 1018.2
20260902042519 72 54 0.0 4.0 0.00 0.00 0.00 50 1018.2
20260902042021 72 54 1.0 4.0 0.00 0.00 0.00 49 1018.2
20260902041536 72 54 0.0 0.0 0.00 0.00 0.00 50 1018.4
20260902041015 72 54 0.0 2.0 0.00 0.00 0.00 50 1018.4
20260902040516 72 54 0.0 2.0 0.00 0.00 0.00 50 1018.4
20260902040014 72 54 0.0 1.0 0.00 0.00 0.00 48 1018.4
20260902035518 72 54 0.0 0.0 0.00 0.01 0.00 48 1018.4
20260902035013 72 54 0.0 0.0 0.00 0.01 0.00 49 1018.4
20260902034517 72 54 0.0 1.0 0.00 0.01 0.00 49 1018.4
20260902034018 73 54 0.0 3.0 0.00 0.01 0.00 49 1018.3
20260902033517 73 54 0.0 4.0 0.00 0.01 0.00 50 1018.3
20260902033016 73 54 2.0 4.0 0.00 0.01 0.00 46 1018.3
20260902032515 74 54 0.0 3.0 0.00 0.01 0.00 46 1018.3
20260902032015 74 54 0.0 3.0 0.00 0.01 0.00 47 1018.2
20260902031517 74 54 0.0 3.0 0.00 0.01 0.00 45 1018.2
20260902031018 75 54 0.0 3.0 0.00 0.01 0.00 45 1018.2
20260902030519 75 54 0.0 3.0 0.00 0.01 0.00 43 1018.2
20260902030016 76 54 0.0 1.0 0.00 0.01 0.00 43 1018.2
20260902025515 76 54 0.0 2.0 0.00 0.01 0.00 42 1018.2
20260902025016 76 54 0.0 3.0 0.00 0.01 0.00 41 1018.0
20260902024513 77 54 1.0 3.0 0.00 0.01 0.00 40 1018.0
20260902024013 77 54 1.0 6.0 0.00 0.01 0.00 40 1017.9
20260902023513 77 54 1.0 6.0 0.00 0.01 0.00 39 1017.8
20260902023018 77 51 3.0 7.0 0.00 0.01 0.00 38 1017.8
20260902022521 77 46 3.0 7.0 0.00 0.01 0.00 37 1017.5
20260902022018 77 70 2.0 6.0 0.00 0.01 0.00 36 1017.7
20260902021515 77 4 0.0 6.0 0.00 0.01 0.00 36 1017.7
20260902021016 77 4 1.0 6.0 0.00 0.01 0.00 36 1017.8
20260902020519 78 1 1.0 6.0 0.00 0.01 0.00 37 1017.8
20260902020028 78 16 1.0 7.0 0.00 0.01 0.00 39 1017.7
20260902015515 79 5 3.0 7.0 0.00 0.04 0.00 38 1017.6
20260902015015 80 72 0.0 6.0 0.00 0.04 0.00 40 1017.7
20260902014518 80 72 2.0 6.0 0.00 0.04 0.00 36 1017.6
20260902014020 81 75 1.0 2.0 0.00 0.04 0.00 34 1017.5
20260902013519 81 75 0.0 0.0 0.00 0.04 0.00 33 1017.6
20260902013016 81 75 0.0 1.0 0.00 0.04 0.00 30 1017.5
20260902012515 82 75 0.0 4.0 0.00 0.04 0.00 30 1017.3
20260902012016 82 75 0.0 4.0 0.00 0.04 0.00 30 1017.1
20260902011518 82 75 1.0 4.0 0.00 0.04 0.00 30 1017.0
20260902011016 82 75 1.0 5.0 0.00 0.04 0.00 30 1017.0
20260902010515 82 75 2.0 5.0 0.00 0.04 0.00 29 1016.9
20260902010024 82 76 1.0 4.0 0.00 0.04 0.00 29 1016.9
20260902005515 83 77 1.0 2.0 0.00 0.04 0.00 30 1016.9
20260902005014 83 77 0.0 1.0 0.00 0.04 0.00 31 1016.9
20260902004516 84 77 0.0 3.0 0.00 0.04 0.00 32 1016.9
20260902004018 84 77 0.0 3.0 0.00 0.04 0.00 28 1017.0
20260902003516 84 77 0.0 3.0 0.00 0.04 0.00 26 1017.0
20260902003018 84 115 0.0 2.0 0.00 0.04 0.00 26 1017.0
20260902002518 84 107 0.0 2.0 0.00 0.04 0.00 26 1017.0
20260902002022 84 107 0.0 3.0 0.00 0.04 0.00 25 1017.0
20260902001519 85 107 0.0 3.0 0.00 0.04 0.00 25 1017.0
20260902001018 85 107 0.0 2.0 0.00 0.04 0.00 26 1017.0
20260902000517 85 107 1.0 4.0 0.00 0.04 0.00 24 1017.0
20260902000029 85 107 1.0 6.0 0.00 0.04 0.00 25 1017.0
20260901235522 85 107 3.0 6.0 0.00 0.04 0.00 26 1017.0
20260901235020 85 110 3.0 5.0 0.00 0.04 0.00 28 1017.0
20260901234520 85 112 2.0 6.0 0.00 0.04 0.00 26 1017.0
20260901234020 85 104 2.0 7.0 0.00 0.04 0.00 27 1017.0
20260901233524 84 112 4.0 7.0 0.00 0.04 0.00 27 1017.1
20260901233019 84 78 2.0 6.0 0.00 0.04 0.00 28 1017.0
20260901232519 84 85 2.0 6.0 0.00 0.04 0.00 27 1017.0
20260901232019 85 82 2.0 6.0 0.00 0.04 0.00 26 1017.1
20260901231522 85 62 1.0 8.0 0.00 0.04 0.00 28 1017.1
20260901231022 86 45 4.0 8.0 0.00 0.04 0.00 26 1017.0
20260901230522 87 38 4.0 8.0 0.00 0.04 0.00 26 1017.0
20260901230037 87 15 1.0 4.0 0.00 0.04 0.00 24 1017.0
20260901225523 88 8 1.0 4.0 0.00 0.04 0.00 26 1017.0
20260901225021 88 6 1.0 5.0 0.00 0.04 0.00 24 1017.0
20260901224523 88 1 1.0 6.0 0.00 0.04 0.00 26 1017.1
20260901224020 88 8 2.0 6.0 0.00 0.04 0.00 26 1017.1
20260901223519 88 6 1.0 5.0 0.00 0.04 0.00 26 1017.2
20260901223024 88 356 2.0 5.0 0.00 0.04 0.00 25 1017.2
20260901222523 88 326 3.0 6.0 0.00 0.04 0.00 26 1017.2
20260901222022 88 359 2.0 7.0 0.00 0.04 0.00 26 1017.3
20260901221527 88 328 3.0 7.0 0.00 0.04 0.00 25 1017.3
20260901221024 88 251 1.0 7.0 0.00 0.04 0.00 26 1017.4
20260901220524 87 248 4.0 6.0 0.00 0.04 0.00 26 1017.4
20260901220040 85 238 2.0 5.0 0.00 0.04 0.00 26 1017.5
20260901215528 85 6 1.0 11.0 0.00 0.04 0.00 26 1017.5
20260901215024 85 1 3.0 11.0 0.00 0.04 0.00 26 1017.5
20260901214524 85 230 4.0 8.0 0.00 0.04 0.00 28 1017.5
20260901214026 84 217 2.0 6.0 0.00 0.04 0.00 27 1017.5
20260901213523 84 99 0.0 6.0 0.00 0.04 0.00 27 1017.5
20260901213003 84 101 2.0 6.0 0.00 0.04 0.00 26 1017.5
20260901212502 85 221 0.0 5.0 0.00 0.04 0.00 26 1017.7
20260901212002 87 272 1.0 7.0 0.00 0.04 0.00 24 1017.7
20260901211527 88 262 3.0 9.0 0.00 0.04 0.00 25 1017.6
20260901211026 87 232 4.0 9.0 0.00 0.04 0.00 25 1017.7
20260901210524 86 117 0.0 7.0 0.00 0.04 0.00 25 1017.7
20260901210028 86 181 2.0 7.0 0.00 0.04 0.00 28 1017.8
20260901205524 85 206 2.0 7.0 0.00 0.04 0.00 26 1017.8
20260901205022 85 189 2.0 9.0 0.00 0.04 0.00 27 1017.9
20260901204505 85 200 1.0 9.0 0.00 0.04 0.00 26 1017.9
20260901204005 87 298 1.0 10.0 0.00 0.04 0.00 26 1017.9
20260901203504 85 293 3.0 10.0 0.00 0.04 0.00 26 1018.0
20260901203042 87 232 5.0 10.0 0.00 0.04 0.00 25 1018.2
20260901202524 85 169 3.0 10.0 0.00 0.04 0.00 27 1018.1
20260901202024 84 67 6.0 10.0 0.00 0.04 0.00 27 1018.1
20260901201525 85 109 5.0 10.0 0.00 0.04 0.00 28 1018.1
20260901201024 85 96 5.0 10.0 0.00 0.04 0.00 27 1018.2
20260901200524 85 104 3.0 8.0 0.00 0.04 0.00 26 1018.2
20260901200036 86 143 5.0 8.0 0.00 0.04 0.00 27 1018.4
20260901195526 86 127 3.0 9.0 0.00 0.04 0.00 27 1018.4
20260901195024 86 191 4.0 10.0 0.00 0.04 0.00 26 1018.4
20260901194522 85 131 3.0 12.0 0.00 0.04 0.00 28 1018.4
20260901194023 85 146 3.0 12.0 0.00 0.04 0.00 28 1018.5
20260901193521 85 210 6.0 12.0 0.00 0.04 0.00 29 1018.4
20260901193021 84 113 5.0 11.0 0.00 0.04 0.00 29 1018.5
20260901192519 84 178 3.0 11.0 0.00 0.04 0.00 30 1018.6
20260901192021 84 184 5.0 11.0 0.00 0.04 0.00 29 1018.7
20260901191523 84 176 4.0 9.0 0.00 0.04 0.00 33 1018.7
20260901191023 83 131 5.0 11.0 0.00 0.04 0.00 33 1018.7
20260901190520 83 105 5.0 11.0 0.00 0.04 0.00 34 1018.8
20260901190038 84 124 5.0 9.0 0.00 0.04 0.00 35 1019.0
20260901185520 83 162 3.0 8.0 0.00 0.04 0.00 35 1019.1
20260901185020 83 148 4.0 11.0 0.00 0.04 0.00 34 1019.2
20260901184523 83 137 3.0 11.0 0.00 0.04 0.00 33 1019.2
20260901184024 82 149 4.0 7.0 0.00 0.04 0.00 34 1019.2
20260901183521 83 120 4.0 9.0 0.00 0.04 0.00 34 1019.3
20260901183027 82 106 2.0 8.0 0.00 0.04 0.00 34 1019.4
20260901182520 81 143 3.0 9.0 0.00 0.04 0.00 35 1019.4
20260901182019 81 146 4.0 9.0 0.00 0.04 0.00 37 1019.5
20260901181502 81 120 2.0 10.0 0.00 0.04 0.00 40 1019.6
20260901181001 81 195 1.0 6.0 0.00 0.04 0.00 39 1019.7
20260901180603 81 143 2.0 7.0 0.00 0.04 0.00 42 1019.8
20260901180023 79 178 2.0 7.0 0.00 0.04 0.00 43 1019.9
20260901175526 79 196 2.0 9.0 0.00 0.04 0.00 44 1020.0
20260901175021 79 193 3.0 9.0 0.00 0.04 0.00 46 1020.0
20260901174531 78 150 2.0 7.0 0.00 0.04 0.00 45 1020.1
20260901174021 78 117 2.0 7.0 0.00 0.04 0.00 44 1020.1
20260901173521 79 165 3.0 6.0 0.00 0.04 0.00 46 1020.2
20260901173026 79 182 2.0 6.0 0.00 0.04 0.00 46 1020.3
20260901172525 77 217 2.0 8.0 0.00 0.04 0.00 47 1020.3
20260901172025 77 215 4.0 8.0 0.00 0.04 0.00 48 1020.3
20260901171527 77 186 2.0 6.0 0.00 0.04 0.00 50 1020.3
20260901171024 76 173 2.0 5.0 0.00 0.04 0.00 49 1020.4
20260901170523 75 126 2.0 6.0 0.00 0.04 0.00 50 1020.4
20260901170024 75 158 3.0 6.0 0.00 0.04 0.00 54 1020.4
20260901165523 74 168 3.0 7.0 0.00 0.04 0.00 57 1020.4
20260901165025 75 139 3.0 7.0 0.00 0.04 0.00 54 1020.4
20260901164525 76 138 1.0 5.0 0.00 0.04 0.00 54 1020.5
20260901164024 75 139 2.0 5.0 0.00 0.04 0.00 59 1020.5
20260901163522 73 160 2.0 5.0 0.00 0.04 0.00 61 1020.6
20260901163027 73 149 3.0 5.0 0.00 0.04 0.00 62 1020.6
20260901162522 72 139 2.0 6.0 0.00 0.04 0.00 64 1020.5
20260901162022 71 167 3.0 6.0 0.00 0.04 0.00 64 1020.5
20260901161509 71 147 1.0 3.0 0.00 0.04 0.00 68 1020.5
20260901161004 69 147 0.0 3.0 0.00 0.04 0.00 68 1020.5
20260901160502 69 147 1.0 3.0 0.00 0.04 0.00 68 1020.5
20260901160024 68 147 0.0 2.0 0.00 0.04 0.00 69 1020.6
20260901155524 68 147 0.0 2.0 0.00 0.04 0.00 69 1020.6
20260901155022 68 158 0.0 2.0 0.00 0.04 0.00 70 1020.6
20260901154526 68 158 0.0 2.0 0.00 0.04 0.00 71 1020.7
20260901154021 68 158 0.0 2.0 0.00 0.04 0.00 73 1020.7
20260901153523 67 158 0.0 2.0 0.00 0.04 0.00 72 1020.6
20260901153007 67 158 0.0 2.0 0.00 0.04 0.00 73 1020.6
20260901152506 67 158 0.0 1.0 0.00 0.04 0.00 74 1020.6
20260901152006 67 158 0.0 3.0 0.00 0.04 0.00 75 1020.5
20260901151526 66 158 0.0 3.0 0.00 0.04 0.00 76 1020.4
20260901151030 66 158 0.0 1.0 0.00 0.04 0.00 77 1020.4
20260901150524 65 158 0.0 1.0 0.00 0.04 0.00 78 1020.4
20260901150008 65 158 0.0 2.0 0.00 0.04 0.00 80 1020.5
20260901145502 65 158 0.0 2.0 0.00 0.04 0.00 81 1020.6
20260901145001 64 155 1.0 3.0 0.00 0.04 0.00 81 1020.5
20260901144509 64 186 0.0 5.0 0.00 0.04 0.00 81 1020.5
20260901144005 64 186 1.0 5.0 0.00 0.04 0.00 80 1020.5
20260901143504 64 186 2.0 5.0 0.00 0.04 0.00 80 1020.5
20260901143023 64 186 2.0 6.0 0.00 0.04 0.00 81 1020.5
20260901142522 64 185 3.0 6.0 0.00 0.04 0.00 81 1020.6
20260901142021 63 152 3.0 5.0 0.00 0.04 0.00 82 1020.6
20260901141524 63 127 2.0 4.0 0.00 0.04 0.00 82 1020.5
20260901141026 63 158 2.0 5.0 0.00 0.04 0.00 82 1020.4
20260901140523 63 156 3.0 5.0 0.00 0.04 0.00 82 1020.5
20260901140026 63 148 2.0 4.0 0.00 0.04 0.00 83 1020.4
20260901135526 63 147 1.0 3.0 0.00 0.04 0.00 83 1020.5
20260901135025 62 147 0.0 3.0 0.00 0.04 0.00 83 1020.4
20260901134522 62 127 0.0 3.0 0.00 0.04 0.00 83 1020.5
20260901134024 62 147 1.0 3.0 0.00 0.04 0.00 83 1020.5
20260901133521 62 147 0.0 3.0 0.00 0.04 0.00 83 1020.4
20260901133011 62 147 1.0 3.0 0.00 0.04 0.00 83 1020.4
20260901132506 62 219 0.0 3.0 0.00 0.04 0.00 84 1020.4
20260901132007 61 219 0.0 2.0 0.00 0.04 0.00 84 1020.2
20260901131506 61 207 0.0 2.0 0.00 0.04 0.00 85 1020.1
20260901131005 61 207 0.0 2.0 0.00 0.04 0.00 85 1020.0
20260901130507 61 207 1.0 2.0 0.00 0.04 0.00 86 1019.9
20260901130009 61 207 0.0 1.0 0.00 0.04 0.00 86 1019.8
20260901125510 61 207 0.0 1.0 0.00 0.04 0.00 85 1019.7
20260901125014 61 207 0.0 0.0 0.00 0.04 0.00 85 1019.6
20260901124507 61 207 0.0 1.0 0.00 0.04 0.00 85 1019.7
20260901124006 61 207 0.0 1.0 0.00 0.04 0.00 85 1019.6
20260901123506 61 207 0.0 2.0 0.00 0.04 0.00 85 1019.4
20260901123008 61 207 0.0 4.0 0.00 0.04 0.00 85 1019.3
20260901122506 61 207 1.0 4.0 0.00 0.04 0.00 85 1019.3
20260901122006 61 207 1.0 2.0 0.00 0.04 0.00 85 1019.2
20260901121511 61 207 1.0 4.0 0.00 0.04 0.00 85 1019.2
20260901121009 61 207 2.0 4.0 0.00 0.04 0.00 85 1019.3
20260901120509 61 207 2.0 4.0 0.00 0.04 0.00 85 1019.4
20260901120010 61 207 2.0 5.0 0.00 0.04 0.00 85 1019.3
20260901115512 61 207 3.0 5.0 0.00 0.04 0.00 85 1019.3
20260901115009 61 206 2.0 6.0 0.00 0.04 0.00 85 1019.3
20260901114506 61 206 3.0 6.0 0.00 0.04 0.00 85 1019.2
20260901114009 62 205 3.0 6.0 0.00 0.04 0.00 86 1019.3
20260901113509 62 204 3.0 5.0 0.00 0.04 0.00 86 1019.2
20260901113012 61 203 4.0 6.0 0.00 0.04 0.00 87 1019.2
20260901112511 61 205 4.0 6.0 0.00 0.04 0.00 87 1019.3
20260901112011 61 203 3.0 5.0 0.00 0.04 0.00 87 1019.3
20260901111511 62 202 3.0 5.0 0.00 0.04 0.00 87 1019.3
20260901111013 62 200 3.0 5.0 0.00 0.04 0.00 87 1019.3
20260901110512 62 197 2.0 5.0 0.00 0.04 0.00 88 1019.3
20260901110019 62 198 3.0 6.0 0.00 0.04 0.00 88 1019.3
20260901105520 62 193 3.0 6.0 0.00 0.04 0.00 88 1019.2
20260901105017 62 196 3.0 6.0 0.00 0.04 0.00 88 1019.3
20260901104534 62 194 3.0 5.0 0.00 0.04 0.00 88 1019.5
20260901104015 62 195 3.0 5.0 0.00 0.04 0.00 88 1019.5
20260901103514 62 193 3.0 5.0 0.00 0.04 0.00 88 1019.6
20260901103014 62 193 2.0 4.0 0.00 0.04 0.00 88 1019.7
20260901102513 62 193 2.0 4.0 0.00 0.04 0.00 88 1019.8
20260901102013 62 194 1.0 4.0 0.00 0.04 0.00 88 1019.8
20260901101521 62 195 0.0 3.0 0.00 0.04 0.00 88 1019.9
20260901101016 62 195 1.0 3.0 0.00 0.04 0.00 88 1019.9
20260901100517 62 195 0.0 2.0 0.00 0.04 0.00 88 1020.1
20260901100015 62 195 0.0 3.0 0.00 0.04 0.00 88 1020.1
20260901095514 62 195 2.0 4.0 0.00 0.04 0.00 88 1020.1